WZZ411 EPGD-ENZV

Flight info

Callsign WZZ411
Flight time 1h 19m
Altitude 36000
Route VAPOS N133 MOTAD DCT PENOR DCT BINRO DCT IDIPI
Aircraft A321/M-SDE1E2E3FGIJ1J4RWXY/LB1

Departure

Time 2026-04-21 14:06
Airport Gdańsk Lech Wałęsa Airport (EPGD)

Arrival

Time 2026-04-21 15:25
Airport Stavanger Airport, Sola (ENZV)
Time Latitude Longitude Altitude Speed Heading
2026-04-21 13:42 54.38022 18.46517 460 ft 0 kts 204°
2026-04-21 13:52 54.38023 18.46517 460 ft 0 kts 204°
2026-04-21 13:59 54.38023 18.46518 459 ft 0 kts 204°
2026-04-21 14:01 54.38020 18.46516 459 ft 2 kts 205°
2026-04-21 14:01 54.37979 18.46504 459 ft 9 kts 164°
2026-04-21 14:01 54.37935 18.46625 457 ft 16 kts 114°
2026-04-21 14:01 54.37890 18.46819 459 ft 17 kts 105°
2026-04-21 14:02 54.37881 18.47003 460 ft 14 kts 85°
2026-04-21 14:02 54.37854 18.47149 459 ft 12 kts 126°
2026-04-21 14:02 54.37797 18.47250 460 ft 11 kts 135°
2026-04-21 14:03 54.37716 18.47505 461 ft 14 kts 112°
2026-04-21 14:03 54.37675 18.47671 463 ft 16 kts 113°
2026-04-21 14:03 54.37629 18.47853 467 ft 17 kts 112°
2026-04-21 14:03 54.37583 18.48047 473 ft 18 kts 113°
2026-04-21 14:04 54.37530 18.48250 474 ft 19 kts 114°
2026-04-21 14:04 54.37478 18.48450 483 ft 18 kts 114°
2026-04-21 14:04 54.37425 18.48629 485 ft 15 kts 137°
2026-04-21 14:04 54.37329 18.48616 492 ft 15 kts 207°
2026-04-21 14:05 54.37326 18.48364 482 ft 45 kts 291°
2026-04-21 14:05 54.37547 18.47470 463 ft 117 kts 293°
2026-04-21 14:05 54.37943 18.45860 469 ft 172 kts 291°
2026-04-21 14:05 54.38408 18.43927 1087 ft 173 kts 297°
2026-04-21 14:06 54.38870 18.42035 1903 ft 172 kts 299°
2026-04-21 14:06 54.39367 18.40054 2327 ft 191 kts 299°
2026-04-21 14:06 54.39928 18.37833 2652 ft 213 kts 298°
2026-04-21 14:06 54.40549 18.35355 2928 ft 239 kts 298°
2026-04-21 14:07 54.41219 18.32654 3447 ft 255 kts 297°
2026-04-21 14:07 54.41918 18.29800 4267 ft 261 kts 297°
2026-04-21 14:07 54.42780 18.27066 5101 ft 260 kts 314°
2026-04-21 14:07 54.44178 18.25132 5879 ft 259 kts 332°
2026-04-21 14:08 54.45731 18.23495 6680 ft 265 kts 333°
2026-04-21 14:08 54.47321 18.21834 7427 ft 270 kts 333°
2026-04-21 14:08 54.48933 18.20144 8202 ft 274 kts 333°
2026-04-21 14:08 54.50574 18.18413 8983 ft 278 kts 333°
2026-04-21 14:09 54.52215 18.16676 9758 ft 282 kts 333°
2026-04-21 14:09 54.53899 18.14888 10485 ft 287 kts 333°
2026-04-21 14:09 54.55670 18.13011 10746 ft 310 kts 333°
2026-04-21 14:09 54.57575 18.10994 10972 ft 331 kts 333°
2026-04-21 14:10 54.59560 18.08847 11533 ft 340 kts 329°
2026-04-21 14:10 54.61468 18.06371 12217 ft 345 kts 327°
2026-04-21 14:10 54.63368 18.03879 12894 ft 348 kts 327°
2026-04-21 14:10 54.65307 18.01337 13580 ft 352 kts 327°
2026-04-21 14:11 54.67275 17.98765 14262 ft 356 kts 327°
2026-04-21 14:11 54.69262 17.96170 14894 ft 359 kts 327°
2026-04-21 14:11 54.71262 17.93557 15542 ft 361 kts 327°
2026-04-21 14:11 54.73276 17.90919 16201 ft 364 kts 327°
2026-04-21 14:12 54.75280 17.88281 16849 ft 367 kts 327°
2026-04-21 14:12 54.77322 17.85594 17491 ft 370 kts 327°
2026-04-21 14:12 54.79411 17.82979 18117 ft 370 kts 333°
2026-04-21 14:12 54.81699 17.80947 18728 ft 369 kts 340°
2026-04-21 14:13 54.84053 17.79105 19289 ft 372 kts 340°
2026-04-21 14:13 54.86394 17.77272 19849 ft 374 kts 341°
2026-04-21 14:13 54.88786 17.75396 20414 ft 377 kts 341°
2026-04-21 14:13 54.91184 17.73510 20974 ft 380 kts 341°
2026-04-21 14:14 54.93578 17.71623 21530 ft 383 kts 341°
2026-04-21 14:14 54.96021 17.69693 22077 ft 386 kts 341°
2026-04-21 14:14 54.98475 17.67751 22606 ft 389 kts 341°
2026-04-21 14:14 55.00956 17.65821 23134 ft 391 kts 342°
2026-04-21 14:15 55.03458 17.63907 23637 ft 393 kts 342°
2026-04-21 14:15 55.05956 17.62011 24116 ft 396 kts 342°
2026-04-21 14:15 55.08497 17.60091 24549 ft 398 kts 342°
2026-04-21 14:15 55.11044 17.58164 24985 ft 400 kts 342°
2026-04-21 14:16 55.13572 17.56239 25410 ft 402 kts 342°
2026-04-21 14:16 55.16144 17.54266 25828 ft 404 kts 342°
2026-04-21 14:16 55.18733 17.52274 26244 ft 406 kts 342°
2026-04-21 14:16 55.21321 17.50282 26657 ft 408 kts 342°
2026-04-21 14:17 55.23919 17.48257 27063 ft 410 kts 342°
2026-04-21 14:17 55.26531 17.46187 27467 ft 412 kts 342°
2026-04-21 14:17 55.29113 17.44120 27862 ft 414 kts 342°
2026-04-21 14:17 55.31745 17.42006 28254 ft 416 kts 342°
2026-04-21 14:18 55.34393 17.39879 28632 ft 418 kts 342°
2026-04-21 14:18 55.37050 17.37747 28991 ft 420 kts 342°
2026-04-21 14:18 55.39714 17.35612 29369 ft 421 kts 342°
2026-04-21 14:18 55.42386 17.33465 29717 ft 423 kts 342°
2026-04-21 14:19 55.45076 17.31304 30085 ft 425 kts 342°
2026-04-21 14:19 55.47742 17.29160 30432 ft 427 kts 342°
2026-04-21 14:19 55.50458 17.26978 30737 ft 429 kts 342°
2026-04-21 14:19 55.53184 17.24789 31026 ft 432 kts 342°
2026-04-21 14:20 55.55918 17.22586 31363 ft 432 kts 342°
2026-04-21 14:20 55.58657 17.20368 31782 ft 431 kts 341°
2026-04-21 14:20 55.61338 17.17941 32167 ft 436 kts 334°
2026-04-21 14:20 55.63806 17.14715 32544 ft 444 kts 324°
2026-04-21 14:21 55.65935 17.10787 32908 ft 452 kts 315°
2026-04-21 14:21 55.67782 17.06254 33283 ft 455 kts 311°
2026-04-21 14:21 55.69594 17.01663 33641 ft 454 kts 311°
2026-04-21 14:21 55.71408 16.97069 34015 ft 453 kts 311°
2026-04-21 14:22 55.73211 16.92491 34371 ft 453 kts 310°
2026-04-21 14:22 55.75012 16.87903 34686 ft 452 kts 310°
2026-04-21 14:22 55.76815 16.83296 34978 ft 452 kts 310°
2026-04-21 14:22 55.78609 16.78704 35266 ft 452 kts 310°
2026-04-21 14:23 55.80379 16.74171 35533 ft 452 kts 310°
2026-04-21 14:23 55.82175 16.69567 35802 ft 452 kts 310°
2026-04-21 14:23 55.83973 16.64950 36072 ft 452 kts 309°
2026-04-21 14:23 55.85759 16.60346 36299 ft 452 kts 309°
2026-04-21 14:24 55.87549 16.55722 36365 ft 451 kts 309°
2026-04-21 14:24 55.91085 16.46564 36342 ft 450 kts 309°
2026-04-21 14:25 55.94612 16.37414 36360 ft 450 kts 309°
2026-04-21 14:25 55.98156 16.28200 36347 ft 450 kts 309°
2026-04-21 14:26 56.01692 16.18939 36358 ft 450 kts 309°
2026-04-21 14:26 56.05191 16.09735 36338 ft 450 kts 309°
2026-04-21 14:27 56.08716 16.00440 36336 ft 451 kts 309°
2026-04-21 14:27 56.12219 15.91170 36352 ft 451 kts 309°
2026-04-21 14:28 56.15745 15.81796 36365 ft 451 kts 308°
2026-04-21 14:28 56.19232 15.72499 36366 ft 451 kts 308°
2026-04-21 14:29 56.22738 15.63112 36369 ft 452 kts 308°
2026-04-21 14:29 56.25644 15.55296 36333 ft 452 kts 308°
2026-04-21 14:30 56.29713 15.44324 36339 ft 452 kts 308°
2026-04-21 14:30 56.33197 15.34866 36341 ft 452 kts 308°
2026-04-21 14:31 56.36091 15.26979 36344 ft 452 kts 308°
2026-04-21 14:31 56.39576 15.17487 36347 ft 452 kts 308°
2026-04-21 14:32 56.43036 15.08012 36330 ft 452 kts 307°
2026-04-21 14:32 56.46473 14.98551 36348 ft 453 kts 307°
2026-04-21 14:33 56.49931 14.88992 36351 ft 453 kts 307°
2026-04-21 14:33 56.53362 14.79495 36360 ft 453 kts 307°
2026-04-21 14:34 56.56811 14.69913 36360 ft 453 kts 307°
2026-04-21 14:34 56.60246 14.60320 36343 ft 453 kts 307°
2026-04-21 14:35 56.63672 14.50711 36349 ft 453 kts 307°
2026-04-21 14:35 56.67079 14.41131 36352 ft 453 kts 307°
2026-04-21 14:36 56.70500 14.31449 36356 ft 453 kts 307°
2026-04-21 14:36 56.73908 14.21776 36360 ft 454 kts 306°
2026-04-21 14:37 56.77289 14.12116 36352 ft 454 kts 306°
2026-04-21 14:37 56.80682 14.02392 36355 ft 454 kts 306°
2026-04-21 14:38 56.84068 13.92685 36360 ft 455 kts 306°
2026-04-21 14:38 56.87461 13.82900 36366 ft 455 kts 306°
2026-04-21 14:39 56.90840 13.73086 36367 ft 455 kts 306°
2026-04-21 14:39 56.94211 13.63286 36380 ft 454 kts 306°
2026-04-21 14:40 56.97575 13.53476 36364 ft 454 kts 305°
2026-04-21 14:40 57.00918 13.43676 36367 ft 454 kts 305°
2026-04-21 14:41 57.04270 13.33815 36368 ft 454 kts 305°
2026-04-21 14:41 57.07591 13.23994 36377 ft 454 kts 305°
2026-04-21 14:42 57.10925 13.14095 36378 ft 455 kts 305°
2026-04-21 14:42 57.14239 13.04240 36361 ft 455 kts 304°
2026-04-21 14:43 57.17544 12.94345 36367 ft 455 kts 304°
2026-04-21 14:43 57.20857 12.84375 36380 ft 455 kts 304°
2026-04-21 14:44 57.24150 12.74429 36384 ft 455 kts 304°
2026-04-21 14:44 57.27447 12.64420 36396 ft 455 kts 304°
2026-04-21 14:45 57.30749 12.54399 36372 ft 455 kts 304°
2026-04-21 14:45 57.34035 12.44351 36396 ft 455 kts 303°
2026-04-21 14:46 57.37280 12.34348 36404 ft 455 kts 303°
2026-04-21 14:46 57.40550 12.24269 36417 ft 455 kts 303°
2026-04-21 14:47 57.43813 12.14195 36415 ft 454 kts 303°
2026-04-21 14:47 57.47043 12.04169 36411 ft 454 kts 303°
2026-04-21 14:48 57.50277 11.94056 36415 ft 454 kts 303°
2026-04-21 14:48 57.53490 11.83978 36415 ft 454 kts 303°
2026-04-21 14:49 57.56580 11.74247 36412 ft 454 kts 302°
2026-04-21 14:49 57.59787 11.64090 36414 ft 455 kts 302°
2026-04-21 14:50 57.62451 11.55641 36420 ft 454 kts 302°
2026-04-21 14:50 57.66169 11.43791 36413 ft 455 kts 302°
2026-04-21 14:51 57.69365 11.33574 36408 ft 455 kts 302°
2026-04-21 14:51 57.72551 11.23333 36427 ft 454 kts 302°
2026-04-21 14:52 57.75699 11.13150 36438 ft 454 kts 302°
2026-04-21 14:52 57.78861 11.02899 36438 ft 454 kts 302°
2026-04-21 14:53 57.81992 10.92681 36437 ft 454 kts 301°
2026-04-21 14:53 57.85129 10.82398 36439 ft 454 kts 301°
2026-04-21 14:54 57.88259 10.72097 36448 ft 454 kts 301°
2026-04-21 14:54 57.91371 10.61816 36448 ft 454 kts 301°
2026-04-21 14:55 57.94499 10.51473 36446 ft 454 kts 301°
2026-04-21 14:55 57.97611 10.41121 36436 ft 454 kts 301°
2026-04-21 14:56 58.00697 10.30781 36450 ft 454 kts 300°
2026-04-21 14:56 58.03790 10.20376 36454 ft 454 kts 300°
2026-04-21 14:57 58.06875 10.09950 36457 ft 455 kts 300°
2026-04-21 14:57 58.09942 9.99542 36457 ft 454 kts 300°
2026-04-21 14:58 58.13004 9.89127 36476 ft 454 kts 300°
2026-04-21 14:58 58.16067 9.78644 36453 ft 454 kts 300°
2026-04-21 14:59 58.19122 9.68237 36466 ft 454 kts 300°
2026-04-21 14:59 58.22202 9.57782 36460 ft 454 kts 300°
2026-04-21 15:00 58.25264 9.47300 36457 ft 453 kts 300°
2026-04-21 15:00 58.28313 9.36785 36462 ft 453 kts 300°
2026-04-21 15:01 58.31332 9.26338 36459 ft 453 kts 299°
2026-04-21 15:01 58.34377 9.15769 36450 ft 454 kts 299°
2026-04-21 15:02 58.37395 9.05238 36448 ft 455 kts 299°
2026-04-21 15:02 58.40430 8.94599 36455 ft 456 kts 299°
2026-04-21 15:03 58.43452 8.83948 36468 ft 456 kts 298°
2026-04-21 15:03 58.46453 8.73328 36452 ft 456 kts 298°
2026-04-21 15:04 58.49472 8.62621 36451 ft 457 kts 298°
2026-04-21 15:04 58.52478 8.51872 36453 ft 457 kts 298°
2026-04-21 15:05 58.55458 8.41181 36447 ft 458 kts 298°
2026-04-21 15:05 58.59952 8.24985 36442 ft 458 kts 298°
2026-04-21 15:06 58.62936 8.14157 36454 ft 458 kts 297°
2026-04-21 15:06 58.65888 8.03381 36446 ft 458 kts 297°
2026-04-21 15:07 58.67255 7.98371 36256 ft 459 kts 297°
2026-04-21 15:07 58.68745 7.92896 35321 ft 465 kts 297°
2026-04-21 15:07 58.70237 7.87408 34182 ft 460 kts 296°
2026-04-21 15:07 58.71695 7.82030 32880 ft 456 kts 296°
2026-04-21 15:08 58.73168 7.76581 31711 ft 450 kts 296°
2026-04-21 15:08 58.74586 7.71330 30629 ft 443 kts 295°
2026-04-21 15:08 58.75998 7.66097 29383 ft 436 kts 295°
2026-04-21 15:08 58.77389 7.60933 28198 ft 428 kts 295°
2026-04-21 15:09 58.78748 7.55881 27076 ft 421 kts 295°
2026-04-21 15:09 58.80067 7.50956 25994 ft 415 kts 295°
2026-04-21 15:09 58.81381 7.46030 24958 ft 409 kts 295°
2026-04-21 15:09 58.82675 7.41164 23978 ft 402 kts 294°
2026-04-21 15:10 58.83943 7.36384 22907 ft 396 kts 295°
2026-04-21 15:10 58.85188 7.31682 21886 ft 389 kts 295°
2026-04-21 15:10 58.86396 7.27109 20885 ft 382 kts 295°
2026-04-21 15:10 58.87594 7.22561 19899 ft 376 kts 295°
2026-04-21 15:11 58.88770 7.18091 18935 ft 370 kts 296°
2026-04-21 15:11 58.89928 7.13686 17864 ft 364 kts 296°
2026-04-21 15:11 58.91065 7.09355 16826 ft 358 kts 296°
2026-04-21 15:11 58.92185 7.05082 15794 ft 352 kts 297°
2026-04-21 15:12 58.93270 7.00931 14804 ft 347 kts 297°
2026-04-21 15:12 58.94353 6.96781 13988 ft 340 kts 298°
2026-04-21 15:12 58.95409 6.92727 13649 ft 333 kts 297°
2026-04-21 15:12 58.96428 6.88734 13258 ft 328 kts 296°
2026-04-21 15:13 58.97056 6.86075 13001 ft 325 kts 295°
2026-04-21 15:13 58.98230 6.80770 12499 ft 320 kts 294°
2026-04-21 15:13 58.99081 6.76804 12099 ft 317 kts 294°
2026-04-21 15:13 58.99927 6.72854 11721 ft 314 kts 294°
2026-04-21 15:14 59.00756 6.69009 11341 ft 311 kts 294°
2026-04-21 15:14 59.01596 6.65151 10950 ft 308 kts 294°
2026-04-21 15:14 59.02430 6.61325 10597 ft 305 kts 294°
2026-04-21 15:14 59.03241 6.57589 10474 ft 295 kts 294°
2026-04-21 15:15 59.04030 6.53946 10200 ft 290 kts 294°
2026-04-21 15:15 59.04812 6.50344 9850 ft 289 kts 294°
2026-04-21 15:15 59.05593 6.46751 9451 ft 289 kts 294°
2026-04-21 15:15 59.06343 6.43190 9089 ft 287 kts 289°
2026-04-21 15:16 59.06600 6.39357 8702 ft 288 kts 267°
2026-04-21 15:16 59.06095 6.35601 8316 ft 288 kts 244°
2026-04-21 15:16 59.04918 6.32507 8053 ft 283 kts 222°
2026-04-21 15:16 59.03928 6.30903 7966 ft 277 kts 219°
2026-04-21 15:17 59.02422 6.28538 7844 ft 279 kts 219°
2026-04-21 15:17 59.00899 6.26157 7698 ft 281 kts 219°
2026-04-21 15:17 58.99373 6.23767 7424 ft 283 kts 219°
2026-04-21 15:17 58.97839 6.21370 6998 ft 284 kts 219°
2026-04-21 15:18 58.96303 6.18980 6638 ft 283 kts 219°
2026-04-21 15:18 58.94772 6.16597 6355 ft 279 kts 219°
2026-04-21 15:18 58.93285 6.14276 6008 ft 278 kts 219°
2026-04-21 15:18 58.91783 6.11932 5511 ft 274 kts 219°
2026-04-21 15:19 58.90301 6.09624 4768 ft 271 kts 219°
2026-04-21 15:19 58.88843 6.07361 4346 ft 268 kts 219°
2026-04-21 15:19 58.87421 6.05155 4202 ft 255 kts 219°
2026-04-21 15:19 58.86062 6.03052 4113 ft 243 kts 219°
2026-04-21 15:20 58.84782 6.01072 4022 ft 230 kts 219°
2026-04-21 15:20 58.83669 5.98953 3915 ft 220 kts 237°
2026-04-21 15:20 58.83099 5.96254 3807 ft 217 kts 260°
2026-04-21 15:20 58.83142 5.93380 3492 ft 212 kts 286°
2026-04-21 15:21 58.83554 5.90748 3195 ft 196 kts 290°
2026-04-21 15:21 58.83927 5.88337 2926 ft 180 kts 290°
2026-04-21 15:21 58.84256 5.86171 2692 ft 158 kts 291°
2026-04-21 15:21 58.84550 5.84237 2442 ft 148 kts 292°
2026-04-21 15:22 58.84840 5.82353 2218 ft 142 kts 291°
2026-04-21 15:22 58.85118 5.80549 1998 ft 139 kts 292°
2026-04-21 15:22 58.85387 5.78795 1787 ft 136 kts 292°
2026-04-21 15:22 58.85656 5.77043 1575 ft 136 kts 292°
2026-04-21 15:23 58.85932 5.75253 1374 ft 141 kts 291°
2026-04-21 15:23 58.86207 5.73445 1144 ft 140 kts 292°
2026-04-21 15:23 58.86477 5.71666 934 ft 134 kts 291°
2026-04-21 15:23 58.86734 5.69967 723 ft 130 kts 290°
2026-04-21 15:24 58.86986 5.68300 515 ft 128 kts 289°
2026-04-21 15:24 58.87241 5.66657 335 ft 127 kts 288°
2026-04-21 15:24 58.87492 5.65013 160 ft 129 kts 287°
2026-04-21 15:24 58.87738 5.63404 42 ft 112 kts 287°
2026-04-21 15:25 58.87915 5.62256 35 ft 55 kts 288°
2026-04-21 15:25 58.87998 5.61756 33 ft 21 kts 283°
2026-04-21 15:25 58.88054 5.61667 33 ft 11 kts 28°
2026-04-21 15:25 58.88116 5.61782 33 ft 13 kts 44°
2026-04-21 15:26 58.88184 5.61910 33 ft 14 kts 44°
2026-04-21 15:26 58.88256 5.62047 34 ft 11 kts 50°
2026-04-21 15:26 58.88231 5.62181 34 ft 12 kts 132°
2026-04-21 15:26 58.88171 5.62298 35 ft 13 kts 135°
2026-04-21 15:27 58.88106 5.62429 36 ft 14 kts 134°
2026-04-21 15:27 58.88054 5.62532 35 ft 8 kts 134°
2026-04-21 15:27 58.88019 5.62627 34 ft 9 kts 108°
2026-04-21 15:27 58.88000 5.62757 34 ft 11 kts 105°
2026-04-21 15:28 58.87988 5.62903 36 ft 12 kts 88°
2026-04-21 15:28 58.88016 5.63048 37 ft 11 kts 55°
2026-04-21 15:28 58.88064 5.63133 37 ft 7 kts 16°
2026-04-21 15:28 58.88075 5.63129 37 ft 1 kts 341°
2026-04-21 15:29 58.88093 5.63093 37 ft 7 kts 313°
2026-04-21 15:29 58.88125 5.63028 36 ft 6 kts 314°
2026-04-21 15:29 58.88133 5.63012 36 ft 0 kts 314°